Weather History for Wittering, United Kingdom

Change the Weather History Date:

Thursday, January 10, 2013

  Actual Average Record
Temperature  
Mean Temperature 32 °F -  
Max Temperature 34 °F 43 °F 55 °F (2005)
Min Temperature 30 °F 34 °F 24 °F (2009)
Degree Days  
Heating Degree Days 33    
Moisture  
Dew Point 33 °F    
Average Humidity 99    
Maximum Humidity 100    
Minimum Humidity 93    
Precipitation  
Precipitation 0.01 in - - ()
Sea Level Pressure  
Sea Level Pressure 29.97 in    
Wind  
Wind Speed 7 mph ()    
Max Wind Speed 13 mph    
Max Gust Speed -    
Visibility 0.5 miles    
Events Fog , Snow    
Averages and records for this station are not official NWS values.
T = Trace of Precipitation, MM = Missing Value Source: Averaged Metar Reports

Daily Weather History Graph

Daily Weather History Graph

Search for Another Location

Airport:

Trip Planner

Search our weather history database for the weather conditions in past years. The results will help you decide how hot, cold, wet, or windy it might be!

Date:

Astronomy

Jan. 10, 2013 Rise Set
Actual Time 8:09 AM GMT 4:09 PM GMT
Civil Twilight 7:29 AM GMT 4:50 PM GMT
Nautical Twilight 6:45 AM GMT 5:33 PM GMT
Astronomical Twilight 6:04 AM GMT 6:14 PM GMT
Moon 6:35 AM GMT (1/10) 3:01 PM GMT (1/10)
Length of Visible Light 9h 21m
Length of Day
8h 00m
Waning Crescent, 3% of the Moon is Illuminated
Jan 10
Waning Crescent
Jan 11
New
Jan 18
First Quarter
Jan 27
Full
Feb 3
Last Quarter

Hourly Weather History & Observations

Time (GMT) Temp. Windchill Dew Point Humidity Pressure Visibility Wind Dir Wind Speed Gust Speed Precip Events Conditions
12:50 AM 30.2 °F 21.9 °F 30.2 °F 100% 30.04 in 0.1 mi West 9.2 mph - N/A Snow Snow Grains
1:50 AM 30.2 °F 21.3 °F 30.2 °F 100% 30.04 in 0.1 mi West 10.4 mph - N/A Snow Snow Grains
2:50 AM 30 °F - 29 °F 97% 30.04 in 0 mi West 8.1 mph - - Snow Snow Grains
2:50 AM 30.2 °F 22.6 °F 30.2 °F 100% 30.01 in 0.1 mi West 8.1 mph - N/A Snow Snow Grains
3:50 AM 30.2 °F 22.6 °F 30.2 °F 100% 30.01 in 0.1 mi West 8.1 mph - N/A Snow Snow Grains
4:50 AM 30.2 °F 21.3 °F 30.2 °F 100% 29.98 in 0.3 mi West 10.4 mph - N/A Snow Snow Grains
5:50 AM 32 °F - 32 °F 98% 30.02 in 0 mi WNW 11.5 mph - - Fog Fog
5:50 AM 32.0 °F 23.0 °F 32.0 °F 100% 29.98 in 0.2 mi WNW 11.5 mph - N/A Fog Fog
6:50 AM 32.0 °F 24.2 °F 32.0 °F 100% 29.98 in 0.2 mi West 9.2 mph - N/A Fog Fog
7:50 AM 30.2 °F 23.4 °F 30.2 °F 100% 29.98 in - West 6.9 mph - N/A Fog Fog
8:50 AM 32.0 °F - 30.2 °F 93% 29.98 in - Calm Calm - N/A   Partly Cloudy
9:50 AM 32.0 °F - 32.0 °F 100% 29.98 in 0.2 mi Calm Calm - N/A Fog Fog
10:50 AM 33.8 °F 30.8 °F 33.8 °F 100% 29.98 in 0.7 mi West 3.5 mph - N/A   Mostly Cloudy
11:50 AM 35 °F - 35 °F 97% 29.98 in 0 mi West 8.1 mph - - Fog Fog
11:50 AM 33.8 °F 27.0 °F 33.8 °F 100% 29.95 in 0.1 mi West 8.1 mph - N/A Fog Fog
12:50 PM 33.8 °F 26.4 °F 33.8 °F 100% 29.95 in 0.3 mi West 9.2 mph - N/A Fog Fog
1:50 PM 33.8 °F 27.7 °F 33.8 °F 100% 29.92 in 0.7 mi West 6.9 mph - N/A   Overcast
2:50 PM 35 °F - 35 °F 97% 29.95 in 1 mi West 6.9 mph - - Fog Fog
2:50 PM 33.8 °F 27.7 °F 33.8 °F 100% 29.92 in 1.0 mi West 6.9 mph - N/A   Overcast
3:50 PM 33.8 °F 30.8 °F 33.8 °F 100% 29.92 in 0.1 mi West 3.5 mph - N/A Fog Fog
4:50 PM 33.8 °F 27.0 °F 33.8 °F 100% 29.92 in 0.2 mi West 8.1 mph - N/A Fog Fog
5:50 PM 33 °F - 33 °F 100% 29.95 in 0 mi West 9.2 mph - - Fog Fog
5:50 PM 33.8 °F 26.4 °F 33.8 °F 100% 29.92 in 0.3 mi West 9.2 mph - N/A Fog Fog
6:50 PM 33.8 °F 27.7 °F 33.8 °F 100% 29.92 in 1.4 mi West 6.9 mph - N/A   Mostly Cloudy
7:50 PM 33.8 °F 26.4 °F 33.8 °F 100% 29.92 in 1.2 mi West 9.2 mph - N/A   Overcast
8:50 PM 33 °F - 33 °F 100% 29.96 in 0 mi West 9.2 mph - - Fog Fog
8:50 PM 33.8 °F 26.4 °F 33.8 °F 100% 29.95 in 0.5 mi West 9.2 mph - N/A Fog Fog
9:50 PM 32.0 °F 22.5 °F 32.0 °F 100% 29.95 in 1.6 mi West 12.7 mph - N/A   Overcast
10:50 PM 33.8 °F 25.3 °F 33.8 °F 100% 29.95 in 2.5 mi West 11.5 mph - N/A   Overcast
11:50 PM 33 °F - 33 °F 100% 30.00 in 2 mi West 9.2 mph - -   Mist
11:50 PM 33.8 °F 26.4 °F 33.8 °F 100% 29.98 in - West 9.2 mph - N/A   Overcast